This demonstration page uses our WeatherBlox Daily Observations layout. Learn more.

39.08367, -84.50855

Hourly Observations for August 9, 2019

Temp ( °F °C ) Dew Point ( °F °C ) Humidity (%) Winds ( mph kmh ) Pressure ( in mb ) Visibility ( mi km ) Precip ( " mm )
12:53 am 00:53 Clear 70 21.1 66 18.9 87 87 WSW 5 7 29.88 1012 10 16.09344 0 0
1:53 am 01:53 Clear 70 21.1 65 18.3 84 84 VRB 5 7 29.85 1011 10 16.09344 0 0
2:53 am 02:53 Mostly Clear 69 20.6 65 18.3 87 87 S 6 9 29.85 1011 10 16.09344 0 0
3:53 am 03:53 Clear 68 20 66 18.9 93 93 NE 5 7 29.85 1011 10 16.09344 0 0
4:53 am 04:53 Clear 67 19.4 66 18.9 97 97 Calm 29.85 1011 10 16.09344 0 0
5:53 am 05:53 Mostly Cloudy 68 20 66 18.9 93 93 NE 3 6 29.88 1012 10 16.09344 0 0
6:53 am 06:53 Partly Cloudy 68 20 66 18.9 93 93 ESE 3 6 29.88 1012 10 16.09344 0 0
7:53 am 07:53 Mostly Cloudy 71 21.7 67 19.4 87 87 Calm 29.91 1013 10 16.09344 0 0
8:53 am 08:53 Partly Cloudy 74 23.3 67 19.4 79 79 ENE 3 6 29.91 1013 10 16.09344 0 0
9:53 am 09:53 Partly Cloudy 76 24.4 63 17.2 64 64 NE 7 11 29.94 1014 10 16.09344 0 0
10:53 am 10:53 Sunny 78 25.6 62 16.7 58 58 E 3 6 29.94 1014 10 16.09344 0 0
11:53 am 11:53 Sunny 79 26.1 63 17.2 58 58 SE 5 7 29.94 1014 10 16.09344 0 0
12:53 pm 12:53 Partly Cloudy 82 27.8 64 17.8 55 55 SE 5 7 29.91 1013 10 16.09344 0 0
1:53 pm 13:53 Mostly Sunny 85 29.4 59 15 42 42 W 13 20 29.91 1013 10 16.09344 0 0
2:53 pm 14:53 Mostly Sunny 86 30 58 14.4 39 39 WNW 10 17 29.88 1012 10 16.09344 0 0
3:53 pm 15:53 Mostly Sunny 87 30.6 60 15.6 40 40 WNW 8 13 29.88 1012 10 16.09344 0 0
4:53 pm 16:53 Mostly Sunny 88 31.1 58 14.4 36 36 N 7 11 29.88 1012 10 16.09344 0 0
5:53 pm 17:53 Sunny 87 30.6 59 15 39 39 VRB 6 9 29.85 1011 10 16.09344 0 0
6:53 pm 18:53 Sunny 85 29.4 58 14.4 40 40 N 13 20 29.85 1011 10 16.09344 0 0
7:53 pm 19:53 Sunny 82 27.8 57 13.9 42 42 NNW 10 17 29.88 1012 10 16.09344 0 0
8:53 pm 20:53 Clear 77 25 57 13.9 50 50 N 6 9 29.88 1012 10 16.09344 0 0
9:53 pm 21:53 Clear 69 20.6 61 16.1 76 76 Calm 29.91 1013 10 16.09344 0 0
10:53 pm 22:53 Clear 66 18.9 63 17.2 90 90 Calm 29.94 1014 10 16.09344 0 0
11:53 pm 23:53 Clear 66 18.9 62 16.7 87 87 Calm 29.94 1014 10 16.09344 0 0

Powered by AerisWeather